owner,sensor,date,latitude,longitude,vertical_datum,mass_concentration_of_oxygen_in_sea_water,qcFlag 
DISL,ioos:station:DISL:KATA:1,2013-10-01T00:00:00Z,30.2583,-88.2131,4.011,1.83,1111122 
DISL,ioos:station:DISL:KATA:1,2013-10-01T00:30:00Z,30.2583,-88.2131,4.026,1.95,1111122 
DISL,ioos:station:DISL:KATA:1,2013-10-01T01:00:00Z,30.2583,-88.2131,4.042,2.1,1111122 
DISL,ioos:station:DISL:KATA:1,2013-10-01T01:30:00Z,30.2583,-88.2131,4.049,2.41,1111122 
DISL,ioos:station:DISL:KATA:1,2013-10-01T02:00:00Z,30.2583,-88.2131,4.07,2.57,1111122 
DISL,ioos:station:DISL:KATA:1,2013-10-01T02:30:00Z,30.2583,-88.2131,4.09,2.74,1111122 
DISL,ioos:station:DISL:KATA:1,2013-10-01T03:00:00Z,30.2583,-88.2131,4.109,2.97,1111122 
DISL,ioos:station:DISL:KATA:1,2013-10-01T03:30:00Z,30.2583,-88.2131,4.133,2.91,1111122 
DISL,ioos:station:DISL:KATA:1,2013-10-01T04:00:00Z,30.2583,-88.2131,4.155,2.94,1111122 
DISL,ioos:station:DISL:KATA:1,2013-10-01T04:30:00Z,30.2583,-88.2131,4.165,2.93,1111122 
DISL,ioos:station:DISL:KATA:1,2013-10-01T05:00:00Z,30.2583,-88.2131,4.178,3.07,1111122 
DISL,ioos:station:DISL:KATA:1,2013-10-01T05:30:00Z,30.2583,-88.2131,4.176,3.04,1111122 
DISL,ioos:station:DISL:KATA:1,2013-10-01T06:00:00Z,30.2583,-88.2131,4.172,2.89,1111122 
DISL,ioos:station:DISL:KATA:1,2013-10-01T06:30:00Z,30.2583,-88.2131,4.18,2.95,1111122 
DISL,ioos:station:DISL:KATA:1,2013-10-01T07:00:00Z,30.2583,-88.2131,4.184,2.82,1111122 
DISL,ioos:station:DISL:KATA:1,2013-10-01T07:30:00Z,30.2583,-88.2131,4.182,2.64,1111122 
DISL,ioos:station:DISL:KATA:1,2013-10-01T08:00:00Z,30.2583,-88.2131,4.189,2.69,1111122 
DISL,ioos:station:DISL:KATA:1,2013-10-01T08:30:00Z,30.2583,-88.2131,4.192,2.69,1111122 
DISL,ioos:station:DISL:KATA:1,2013-10-01T09:00:00Z,30.2583,-88.2131,4.205,2.7,1111122 
DISL,ioos:station:DISL:KATA:1,2013-10-01T09:30:00Z,30.2583,-88.2131,4.206,2.74,1111122 
DISL,ioos:station:DISL:KATA:1,2013-10-01T10:00:00Z,30.2583,-88.2131,4.206,2.85,1111122 
DISL,ioos:station:DISL:KATA:1,2013-10-01T10:30:00Z,30.2583,-88.2131,4.214,2.93,1111122 
DISL,ioos:station:DISL:KATA:1,2013-10-01T11:00:00Z,30.2583,-88.2131,4.225,2.86,1111122 
DISL,ioos:station:DISL:KATA:1,2013-10-01T11:30:00Z,30.2583,-88.2131,4.235,2.86,1111122 
DISL,ioos:station:DISL:KATA:1,2013-10-01T12:00:00Z,30.2583,-88.2131,4.245,2.93,1111122 
DISL,ioos:station:DISL:KATA:1,2013-10-01T12:30:00Z,30.2583,-88.2131,4.257,2.87,1111122 
DISL,ioos:station:DISL:KATA:1,2013-10-01T13:00:00Z,30.2583,-88.2131,4.255,2.93,1111122 
DISL,ioos:station:DISL:KATA:1,2013-10-01T13:30:00Z,30.2583,-88.2131,4.25,2.93,1111122 
DISL,ioos:station:DISL:KATA:1,2013-10-01T14:00:00Z,30.2583,-88.2131,4.231,2.9,1111122 
DISL,ioos:station:DISL:KATA:1,2013-10-01T14:30:00Z,30.2583,-88.2131,4.209,2.9,1111122 
DISL,ioos:station:DISL:KATA:1,2013-10-01T15:00:00Z,30.2583,-88.2131,4.187,2.87,1111122 
DISL,ioos:station:DISL:KATA:1,2013-10-01T15:30:00Z,30.2583,-88.2131,4.172,2.84,1111122 
DISL,ioos:station:DISL:KATA:1,2013-10-01T16:00:00Z,30.2583,-88.2131,4.159,2.95,1111122 
DISL,ioos:station:DISL:KATA:1,2013-10-01T16:30:00Z,30.2583,-88.2131,4.155,2.99,1111122 
DISL,ioos:station:DISL:KATA:1,2013-10-01T17:00:00Z,30.2583,-88.2131,4.146,3.1,1111122 
DISL,ioos:station:DISL:KATA:1,2013-10-01T17:30:00Z,30.2583,-88.2131,4.143,3.16,1111122 
DISL,ioos:station:DISL:KATA:1,2013-10-01T18:00:00Z,30.2583,-88.2131,4.129,3.25,1111122 
DISL,ioos:station:DISL:KATA:1,2013-10-01T18:30:00Z,30.2583,-88.2131,4.111,3.33,1111122 
DISL,ioos:station:DISL:KATA:1,2013-10-01T19:00:00Z,30.2583,-88.2131,4.091,3.38,1111122 
DISL,ioos:station:DISL:KATA:1,2013-10-01T19:30:00Z,30.2583,-88.2131,4.069,3.34,1111122 
DISL,ioos:station:DISL:KATA:1,2013-10-01T20:00:00Z,30.2583,-88.2131,4.057,3.32,1111122 
DISL,ioos:station:DISL:KATA:1,2013-10-01T20:30:00Z,30.2583,-88.2131,4.053,3.34,1111122 
DISL,ioos:station:DISL:KATA:1,2013-10-01T21:00:00Z,30.2583,-88.2131,4.05,3.4,1111122 
DISL,ioos:station:DISL:KATA:1,2013-10-01T21:30:00Z,30.2583,-88.2131,4.058,3.73,1111122 
DISL,ioos:station:DISL:KATA:1,2013-10-01T22:00:00Z,30.2583,-88.2131,4.061,3.76,1111122 
DISL,ioos:station:DISL:KATA:1,2013-10-01T22:30:00Z,30.2583,-88.2131,4.071,3.81,1111122 
DISL,ioos:station:DISL:KATA:1,2013-10-01T23:00:00Z,30.2583,-88.2131,4.089,3.8,1111122 
DISL,ioos:station:DISL:KATA:1,2013-10-01T23:30:00Z,30.2583,-88.2131,4.11,3.58,1111122 
DISL,ioos:station:DISL:KATA:1,2013-10-02T00:00:00Z,30.2583,-88.2131,4.127,3.65,1111122 
DISL,ioos:station:DISL:KATA:1,2013-10-02T00:30:00Z,30.2583,-88.2131,4.135,3.63,1111122 
DISL,ioos:station:DISL:KATA:1,2013-10-02T01:00:00Z,30.2583,-88.2131,4.132,3.53,1111122 
DISL,ioos:station:DISL:KATA:1,2013-10-02T01:30:00Z,30.2583,-88.2131,4.134,3.5,1111122 
DISL,ioos:station:DISL:KATA:1,2013-10-02T02:00:00Z,30.2583,-88.2131,4.133,3.39,1111122 
DISL,ioos:station:DISL:KATA:1,2013-10-02T02:30:00Z,30.2583,-88.2131,4.13,3.27,1111122 
DISL,ioos:station:DISL:KATA:1,2013-10-02T03:00:00Z,30.2583,-88.2131,4.136,3.25,1111122 
DISL,ioos:station:DISL:KATA:1,2013-10-02T03:30:00Z,30.2583,-88.2131,4.139,3.19,1111122 
DISL,ioos:station:DISL:KATA:1,2013-10-02T04:00:00Z,30.2583,-88.2131,4.144,3.16,1111122 
DISL,ioos:station:DISL:KATA:1,2013-10-02T04:30:00Z,30.2583,-88.2131,4.148,3.1,1111122 
DISL,ioos:station:DISL:KATA:1,2013-10-02T05:00:00Z,30.2583,-88.2131,4.153,3.1,1111122 
DISL,ioos:station:DISL:KATA:1,2013-10-02T05:30:00Z,30.2583,-88.2131,4.147,3.15,1111122 
DISL,ioos:station:DISL:KATA:1,2013-10-02T06:00:00Z,30.2583,-88.2131,4.145,3.08,1111122 
DISL,ioos:station:DISL:KATA:1,2013-10-02T06:30:00Z,30.2583,-88.2131,4.138,2.93,1111122 
DISL,ioos:station:DISL:KATA:1,2013-10-02T07:00:00Z,30.2583,-88.2131,4.135,2.99,1111122 
DISL,ioos:station:DISL:KATA:1,2013-10-02T07:30:00Z,30.2583,-88.2131,4.138,3.04,1111122 
DISL,ioos:station:DISL:KATA:1,2013-10-02T08:00:00Z,30.2583,-88.2131,4.136,3.0,1111122 
DISL,ioos:station:DISL:KATA:1,2013-10-02T08:30:00Z,30.2583,-88.2131,4.133,3.04,1111122 
DISL,ioos:station:DISL:KATA:1,2013-10-02T09:00:00Z,30.2583,-88.2131,4.125,2.95,1111122 
DISL,ioos:station:DISL:KATA:1,2013-10-02T09:30:00Z,30.2583,-88.2131,4.108,2.92,1111122 
DISL,ioos:station:DISL:KATA:1,2013-10-02T10:00:00Z,30.2583,-88.2131,4.104,2.84,1111122 
DISL,ioos:station:DISL:KATA:1,2013-10-02T10:30:00Z,30.2583,-88.2131,4.095,2.77,1111122 
DISL,ioos:station:DISL:KATA:1,2013-10-02T11:00:00Z,30.2583,-88.2131,4.079,2.71,1111122 
DISL,ioos:station:DISL:KATA:1,2013-10-02T11:30:00Z,30.2583,-88.2131,4.105,2.62,1111122 
DISL,ioos:station:DISL:KATA:1,2013-10-02T12:00:00Z,30.2583,-88.2131,4.153,2.65,1111122 
DISL,ioos:station:DISL:KATA:1,2013-10-02T12:30:00Z,30.2583,-88.2131,4.187,2.73,1111122 
DISL,ioos:station:DISL:KATA:1,2013-10-02T13:00:00Z,30.2583,-88.2131,4.206,2.75,1111122 
DISL,ioos:station:DISL:KATA:1,2013-10-02T13:30:00Z,30.2583,-88.2131,4.227,2.64,1111122 
DISL,ioos:station:DISL:KATA:1,2013-10-02T14:00:00Z,30.2583,-88.2131,4.237,2.65,1111122 
DISL,ioos:station:DISL:KATA:1,2013-10-02T14:30:00Z,30.2583,-88.2131,4.239,2.64,1111122 
DISL,ioos:station:DISL:KATA:1,2013-10-02T15:00:00Z,30.2583,-88.2131,4.239,2.61,1111122 
DISL,ioos:station:DISL:KATA:1,2013-10-02T15:30:00Z,30.2583,-88.2131,4.211,2.6,1111122 
DISL,ioos:station:DISL:KATA:1,2013-10-02T16:00:00Z,30.2583,-88.2131,4.223,2.57,1111122 
DISL,ioos:station:DISL:KATA:1,2013-10-02T16:30:00Z,30.2583,-88.2131,4.207,2.5,1111122 
DISL,ioos:station:DISL:KATA:1,2013-10-02T17:00:00Z,30.2583,-88.2131,4.202,2.48,1111122 
DISL,ioos:station:DISL:KATA:1,2013-10-02T17:30:00Z,30.2583,-88.2131,4.184,2.48,1111122 
DISL,ioos:station:DISL:KATA:1,2013-10-02T18:00:00Z,30.2583,-88.2131,4.162,2.5,1111122 
DISL,ioos:station:DISL:KATA:1,2013-10-02T18:30:00Z,30.2583,-88.2131,4.148,2.64,1111122 
DISL,ioos:station:DISL:KATA:1,2013-10-02T19:00:00Z,30.2583,-88.2131,4.132,2.61,1111122 
DISL,ioos:station:DISL:KATA:1,2013-10-02T19:30:00Z,30.2583,-88.2131,4.109,2.53,1111122 
DISL,ioos:station:DISL:KATA:1,2013-10-02T20:00:00Z,30.2583,-88.2131,4.093,2.6,1111122 
DISL,ioos:station:DISL:KATA:1,2013-10-02T20:30:00Z,30.2583,-88.2131,4.082,2.52,1111122 
DISL,ioos:station:DISL:KATA:1,2013-10-02T21:00:00Z,30.2583,-88.2131,4.065,2.7,1111122 
DISL,ioos:station:DISL:KATA:1,2013-10-02T21:30:00Z,30.2583,-88.2131,4.079,2.55,1111122 
DISL,ioos:station:DISL:KATA:1,2013-10-02T22:00:00Z,30.2583,-88.2131,4.089,2.44,1111122 
DISL,ioos:station:DISL:KATA:1,2013-10-02T22:30:00Z,30.2583,-88.2131,4.1,2.46,1111122 
DISL,ioos:station:DISL:KATA:1,2013-10-02T23:00:00Z,30.2583,-88.2131,4.109,2.33,1111122 
DISL,ioos:station:DISL:KATA:1,2013-10-02T23:30:00Z,30.2583,-88.2131,4.127,2.32,1111122 
DISL,ioos:station:DISL:KATA:1,2013-10-03T00:00:00Z,30.2583,-88.2131,4.157,2.2,1111122 
DISL,ioos:station:DISL:KATA:1,2013-10-03T00:30:00Z,30.2583,-88.2131,4.188,2.26,1111122 
DISL,ioos:station:DISL:KATA:1,2013-10-03T01:00:00Z,30.2583,-88.2131,4.21,2.19,1111122 
DISL,ioos:station:DISL:KATA:1,2013-10-03T01:30:00Z,30.2583,-88.2131,4.235,2.29,1111122 
DISL,ioos:station:DISL:KATA:1,2013-10-03T02:00:00Z,30.2583,-88.2131,4.255,2.32,1111122 
DISL,ioos:station:DISL:KATA:1,2013-10-03T02:30:00Z,30.2583,-88.2131,4.268,2.3,1111122 
DISL,ioos:station:DISL:KATA:1,2013-10-03T03:00:00Z,30.2583,-88.2131,4.277,2.36,1111122 
DISL,ioos:station:DISL:KATA:1,2013-10-03T03:30:00Z,30.2583,-88.2131,4.285,2.31,1111122 
DISL,ioos:station:DISL:KATA:1,2013-10-03T04:00:00Z,30.2583,-88.2131,4.29,2.29,1111122 
DISL,ioos:station:DISL:KATA:1,2013-10-03T04:30:00Z,30.2583,-88.2131,4.28,2.26,1111122 
DISL,ioos:station:DISL:KATA:1,2013-10-03T05:00:00Z,30.2583,-88.2131,4.257,2.17,1111122 
DISL,ioos:station:DISL:KATA:1,2013-10-03T05:30:00Z,30.2583,-88.2131,4.255,2.03,1111122 
DISL,ioos:station:DISL:KATA:1,2013-10-03T06:00:00Z,30.2583,-88.2131,4.255,1.91,1111122 
DISL,ioos:station:DISL:KATA:1,2013-10-03T06:30:00Z,30.2583,-88.2131,4.253,1.81,1111122 
DISL,ioos:station:DISL:KATA:1,2013-10-03T07:00:00Z,30.2583,-88.2131,4.234,1.71,1111122 
DISL,ioos:station:DISL:KATA:1,2013-10-03T07:30:00Z,30.2583,-88.2131,4.222,1.78,1111122 
DISL,ioos:station:DISL:KATA:1,2013-10-03T08:00:00Z,30.2583,-88.2131,4.21,1.87,1111122 
DISL,ioos:station:DISL:KATA:1,2013-10-03T08:30:00Z,30.2583,-88.2131,4.19,1.89,1111122 
DISL,ioos:station:DISL:KATA:1,2013-10-03T09:00:00Z,30.2583,-88.2131,4.18,1.75,1111122 
DISL,ioos:station:DISL:KATA:1,2013-10-03T09:30:00Z,30.2583,-88.2131,4.162,1.95,1111122 
DISL,ioos:station:DISL:KATA:1,2013-10-03T10:00:00Z,30.2583,-88.2131,4.149,2.41,1111122 
DISL,ioos:station:DISL:KATA:1,2013-10-03T10:30:00Z,30.2583,-88.2131,4.144,2.56,1111122 
DISL,ioos:station:DISL:KATA:1,2013-10-03T11:00:00Z,30.2583,-88.2131,4.16,2.6,1111122 
DISL,ioos:station:DISL:KATA:1,2013-10-03T11:30:00Z,30.2583,-88.2131,4.18,2.55,1111122 
DISL,ioos:station:DISL:KATA:1,2013-10-03T12:00:00Z,30.2583,-88.2131,4.209,2.59,1111122 
DISL,ioos:station:DISL:KATA:1,2013-10-03T12:30:00Z,30.2583,-88.2131,4.235,2.44,1111122 
DISL,ioos:station:DISL:KATA:1,2013-10-03T13:00:00Z,30.2583,-88.2131,4.251,2.39,1111122 
DISL,ioos:station:DISL:KATA:1,2013-10-03T13:30:00Z,30.2583,-88.2131,4.266,2.42,1111122 
DISL,ioos:station:DISL:KATA:1,2013-10-03T14:00:00Z,30.2583,-88.2131,4.268,2.38,1111122 
DISL,ioos:station:DISL:KATA:1,2013-10-03T14:30:00Z,30.2583,-88.2131,4.261,2.28,1111122 
DISL,ioos:station:DISL:KATA:1,2013-10-03T15:00:00Z,30.2583,-88.2131,4.258,2.28,1111122 
DISL,ioos:station:DISL:KATA:1,2013-10-03T17:30:00Z,30.2583,-88.2131,4.28,2.02,1111122 
DISL,ioos:station:DISL:KATA:1,2013-10-03T18:00:00Z,30.2583,-88.2131,4.272,2.11,1111122 
DISL,ioos:station:DISL:KATA:1,2013-10-03T18:30:00Z,30.2583,-88.2131,4.266,2.15,1111122 
DISL,ioos:station:DISL:KATA:1,2013-10-03T19:00:00Z,30.2583,-88.2131,4.256,2.19,1111122 
DISL,ioos:station:DISL:KATA:1,2013-10-03T19:30:00Z,30.2583,-88.2131,4.241,2.13,1111122 
DISL,ioos:station:DISL:KATA:1,2013-10-03T20:00:00Z,30.2583,-88.2131,4.217,2.07,1111122 
DISL,ioos:station:DISL:KATA:1,2013-10-03T20:30:00Z,30.2583,-88.2131,4.147,3.02,1111122 
DISL,ioos:station:DISL:KATA:1,2013-10-03T21:00:00Z,30.2583,-88.2131,4.201,3.59,1111122 
DISL,ioos:station:DISL:KATA:1,2013-10-03T21:30:00Z,30.2583,-88.2131,4.238,4.77,1111122 
DISL,ioos:station:DISL:KATA:1,2013-10-03T22:00:00Z,30.2583,-88.2131,4.242,2.41,1111122 
DISL,ioos:station:DISL:KATA:1,2013-10-03T22:30:00Z,30.2583,-88.2131,4.238,2.08,1111122 
DISL,ioos:station:DISL:KATA:1,2013-10-03T23:00:00Z,30.2583,-88.2131,4.215,1.84,1111122 
DISL,ioos:station:DISL:KATA:1,2013-10-03T23:30:00Z,30.2583,-88.2131,4.195,1.97,1111122 
DISL,ioos:station:DISL:KATA:1,2013-10-04T00:00:00Z,30.2583,-88.2131,4.27,2.19,1111122 
DISL,ioos:station:DISL:KATA:1,2013-10-04T00:30:00Z,30.2583,-88.2131,4.262,2.21,1111122 
DISL,ioos:station:DISL:KATA:1,2013-10-04T01:00:00Z,30.2583,-88.2131,4.278,2.74,1111122 
DISL,ioos:station:DISL:KATA:1,2013-10-04T01:30:00Z,30.2583,-88.2131,4.295,2.84,1111122 
DISL,ioos:station:DISL:KATA:1,2013-10-04T02:00:00Z,30.2583,-88.2131,4.328,2.53,1111122 
DISL,ioos:station:DISL:KATA:1,2013-10-04T02:30:00Z,30.2583,-88.2131,4.334,2.49,1111122 
DISL,ioos:station:DISL:KATA:1,2013-10-04T03:00:00Z,30.2583,-88.2131,4.358,2.18,1111122 
DISL,ioos:station:DISL:KATA:1,2013-10-04T03:30:00Z,30.2583,-88.2131,4.37,2.17,1111122 
DISL,ioos:station:DISL:KATA:1,2013-10-04T04:00:00Z,30.2583,-88.2131,4.356,2.5,1111122 
DISL,ioos:station:DISL:KATA:1,2013-10-04T04:30:00Z,30.2583,-88.2131,4.312,2.86,1111122 
DISL,ioos:station:DISL:KATA:1,2013-10-04T05:00:00Z,30.2583,-88.2131,4.286,2.63,1111122 
DISL,ioos:station:DISL:KATA:1,2013-10-04T05:30:00Z,30.2583,-88.2131,4.272,2.34,1111122 
DISL,ioos:station:DISL:KATA:1,2013-10-04T06:00:00Z,30.2583,-88.2131,4.256,2.85,1111122 
DISL,ioos:station:DISL:KATA:1,2013-10-04T06:30:00Z,30.2583,-88.2131,4.241,2.07,1111122 
DISL,ioos:station:DISL:KATA:1,2013-10-04T07:00:00Z,30.2583,-88.2131,4.233,2.39,1111122 
DISL,ioos:station:DISL:KATA:1,2013-10-04T07:30:00Z,30.2583,-88.2131,4.202,2.56,1111122 
DISL,ioos:station:DISL:KATA:1,2013-10-04T08:00:00Z,30.2583,-88.2131,4.167,1.89,1111122 
DISL,ioos:station:DISL:KATA:1,2013-10-04T08:30:00Z,30.2583,-88.2131,4.139,2.11,1111122 
DISL,ioos:station:DISL:KATA:1,2013-10-04T09:00:00Z,30.2583,-88.2131,4.109,2.21,1111122 
DISL,ioos:station:DISL:KATA:1,2013-10-04T09:30:00Z,30.2583,-88.2131,4.075,2.31,1111122 
DISL,ioos:station:DISL:KATA:1,2013-10-04T10:00:00Z,30.2583,-88.2131,4.051,3.36,1111122 
DISL,ioos:station:DISL:KATA:1,2013-10-04T10:30:00Z,30.2583,-88.2131,4.041,3.83,1111122 
DISL,ioos:station:DISL:KATA:1,2013-10-04T11:00:00Z,30.2583,-88.2131,4.039,1.82,1111122 
DISL,ioos:station:DISL:KATA:1,2013-10-04T11:30:00Z,30.2583,-88.2131,4.055,2.21,1111122 
DISL,ioos:station:DISL:KATA:1,2013-10-04T12:00:00Z,30.2583,-88.2131,4.087,2.14,1111122 
DISL,ioos:station:DISL:KATA:1,2013-10-04T12:30:00Z,30.2583,-88.2131,4.129,2.68,1111122 
DISL,ioos:station:DISL:KATA:1,2013-10-04T13:00:00Z,30.2583,-88.2131,4.166,2.26,1111122 
DISL,ioos:station:DISL:KATA:1,2013-10-04T13:30:00Z,30.2583,-88.2131,4.199,2.13,1111122 
DISL,ioos:station:DISL:KATA:1,2013-10-04T14:00:00Z,30.2583,-88.2131,4.221,2.12,1111122 
DISL,ioos:station:DISL:KATA:1,2013-10-04T14:30:00Z,30.2583,-88.2131,4.233,2.57,1111122 
DISL,ioos:station:DISL:KATA:1,2013-10-04T15:00:00Z,30.2583,-88.2131,4.235,3.2,1111122 
DISL,ioos:station:DISL:KATA:1,2013-10-04T15:30:00Z,30.2583,-88.2131,4.238,3.36,1111122 
DISL,ioos:station:DISL:KATA:1,2013-10-04T16:00:00Z,30.2583,-88.2131,4.249,3.36,1111122 
DISL,ioos:station:DISL:KATA:1,2013-10-04T16:30:00Z,30.2583,-88.2131,4.254,3.13,1111122 
DISL,ioos:station:DISL:KATA:1,2013-10-04T17:00:00Z,30.2583,-88.2131,4.254,3.11,1111122 
DISL,ioos:station:DISL:KATA:1,2013-10-04T17:30:00Z,30.2583,-88.2131,4.257,3.12,1111122 
DISL,ioos:station:DISL:KATA:1,2013-10-04T18:00:00Z,30.2583,-88.2131,4.273,2.92,1111122 
DISL,ioos:station:DISL:KATA:1,2013-10-04T18:30:00Z,30.2583,-88.2131,4.282,2.78,1111122 
DISL,ioos:station:DISL:KATA:1,2013-10-04T19:00:00Z,30.2583,-88.2131,4.29,2.98,1111122 
DISL,ioos:station:DISL:KATA:1,2013-10-04T19:30:00Z,30.2583,-88.2131,4.29,3.37,1111122 
DISL,ioos:station:DISL:KATA:1,2013-10-04T20:00:00Z,30.2583,-88.2131,4.293,2.79,1111122 
DISL,ioos:station:DISL:KATA:1,2013-10-04T20:30:00Z,30.2583,-88.2131,4.293,2.97,1111122 
DISL,ioos:station:DISL:KATA:1,2013-10-04T21:00:00Z,30.2583,-88.2131,4.283,2.63,1111122 
DISL,ioos:station:DISL:KATA:1,2013-10-04T21:30:00Z,30.2583,-88.2131,4.283,2.49,1111122 
DISL,ioos:station:DISL:KATA:1,2013-10-04T22:00:00Z,30.2583,-88.2131,4.278,2.38,1111122 
DISL,ioos:station:DISL:KATA:1,2013-10-04T22:30:00Z,30.2583,-88.2131,4.29,2.53,1111122 
DISL,ioos:station:DISL:KATA:1,2013-10-04T23:00:00Z,30.2583,-88.2131,4.3,2.75,1111122 
DISL,ioos:station:DISL:KATA:1,2013-10-04T23:30:00Z,30.2583,-88.2131,4.292,2.52,1111122 
DISL,ioos:station:DISL:KATA:1,2013-10-05T00:00:00Z,30.2583,-88.2131,4.283,2.6,1111122 
DISL,ioos:station:DISL:KATA:1,2013-10-05T00:30:00Z,30.2583,-88.2131,4.285,2.95,1111122 
DISL,ioos:station:DISL:KATA:1,2013-10-05T01:00:00Z,30.2583,-88.2131,4.292,2.92,1111122 
DISL,ioos:station:DISL:KATA:1,2013-10-05T01:30:00Z,30.2583,-88.2131,4.286,2.78,1111122 
DISL,ioos:station:DISL:KATA:1,2013-10-05T02:00:00Z,30.2583,-88.2131,4.298,2.43,1111122 
DISL,ioos:station:DISL:KATA:1,2013-10-05T02:30:00Z,30.2583,-88.2131,4.306,2.54,1111122 
DISL,ioos:station:DISL:KATA:1,2013-10-05T03:00:00Z,30.2583,-88.2131,4.306,2.03,1111122 
DISL,ioos:station:DISL:KATA:1,2013-10-05T03:30:00Z,30.2583,-88.2131,4.312,2.24,1111122 
DISL,ioos:station:DISL:KATA:1,2013-10-05T04:00:00Z,30.2583,-88.2131,4.318,2.25,1111122 
DISL,ioos:station:DISL:KATA:1,2013-10-05T04:30:00Z,30.2583,-88.2131,4.314,2.41,1111122 
DISL,ioos:station:DISL:KATA:1,2013-10-05T05:00:00Z,30.2583,-88.2131,4.311,2.5,1111122 
DISL,ioos:station:DISL:KATA:1,2013-10-05T05:30:00Z,30.2583,-88.2131,4.309,2.46,1111122 
DISL,ioos:station:DISL:KATA:1,2013-10-05T06:00:00Z,30.2583,-88.2131,4.292,1.97,1111122 
DISL,ioos:station:DISL:KATA:1,2013-10-05T06:30:00Z,30.2583,-88.2131,4.27,4.42,1111122 
DISL,ioos:station:DISL:KATA:1,2013-10-05T07:00:00Z,30.2583,-88.2131,4.265,4.22,1111122 
DISL,ioos:station:DISL:KATA:1,2013-10-05T07:30:00Z,30.2583,-88.2131,4.247,2.97,1111122 
DISL,ioos:station:DISL:KATA:1,2013-10-05T08:00:00Z,30.2583,-88.2131,4.219,6.34,1111122 
DISL,ioos:station:DISL:KATA:1,2013-10-05T08:30:00Z,30.2583,-88.2131,4.183,6.18,1111122 
DISL,ioos:station:DISL:KATA:1,2013-10-05T09:00:00Z,30.2583,-88.2131,4.151,6.65,1111122 
DISL,ioos:station:DISL:KATA:1,2013-10-05T09:30:00Z,30.2583,-88.2131,4.119,6.81,1111122 
DISL,ioos:station:DISL:KATA:1,2013-10-05T10:00:00Z,30.2583,-88.2131,4.095,6.68,1111122 
DISL,ioos:station:DISL:KATA:1,2013-10-05T10:30:00Z,30.2583,-88.2131,4.068,6.88,1111122 
DISL,ioos:station:DISL:KATA:1,2013-10-05T11:00:00Z,30.2583,-88.2131,4.046,6.81,1111122 
DISL,ioos:station:DISL:KATA:1,2013-10-05T11:30:00Z,30.2583,-88.2131,4.034,6.64,1111122 
DISL,ioos:station:DISL:KATA:1,2013-10-05T12:00:00Z,30.2583,-88.2131,4.033,6.7,1111122 
DISL,ioos:station:DISL:KATA:1,2013-10-05T12:30:00Z,30.2583,-88.2131,4.034,6.78,1111122 
DISL,ioos:station:DISL:KATA:1,2013-10-05T13:00:00Z,30.2583,-88.2131,4.045,6.44,1111122 
DISL,ioos:station:DISL:KATA:1,2013-10-05T13:30:00Z,30.2583,-88.2131,4.061,6.41,1111122 
DISL,ioos:station:DISL:KATA:1,2013-10-05T14:00:00Z,30.2583,-88.2131,4.072,6.5,1111122 
DISL,ioos:station:DISL:KATA:1,2013-10-05T14:30:00Z,30.2583,-88.2131,4.087,6.44,1111122 
DISL,ioos:station:DISL:KATA:1,2013-10-05T15:00:00Z,30.2583,-88.2131,4.114,6.24,1111122 
DISL,ioos:station:DISL:KATA:1,2013-10-05T15:30:00Z,30.2583,-88.2131,4.132,6.41,1111122 
DISL,ioos:station:DISL:KATA:1,2013-10-05T16:00:00Z,30.2583,-88.2131,4.155,6.4,1111122 
DISL,ioos:station:DISL:KATA:1,2013-10-05T16:30:00Z,30.2583,-88.2131,4.169,6.63,1111122 
DISL,ioos:station:DISL:KATA:1,2013-10-05T17:00:00Z,30.2583,-88.2131,4.18,6.55,1111122 
DISL,ioos:station:DISL:KATA:1,2013-10-05T17:30:00Z,30.2583,-88.2131,4.195,6.99,1111122 
DISL,ioos:station:DISL:KATA:1,2013-10-05T18:00:00Z,30.2583,-88.2131,4.208,6.86,1111122 
DISL,ioos:station:DISL:KATA:1,2013-10-05T18:30:00Z,30.2583,-88.2131,4.226,6.66,1111122 
DISL,ioos:station:DISL:KATA:1,2013-10-05T19:00:00Z,30.2583,-88.2131,4.224,6.5,1111122 
DISL,ioos:station:DISL:KATA:1,2013-10-05T19:30:00Z,30.2583,-88.2131,4.216,3.63,1111122 
DISL,ioos:station:DISL:KATA:1,2013-10-05T20:00:00Z,30.2583,-88.2131,4.202,3.99,1111122 
DISL,ioos:station:DISL:KATA:1,2013-10-05T20:30:00Z,30.2583,-88.2131,4.201,5.37,1111122 
DISL,ioos:station:DISL:KATA:1,2013-10-05T21:00:00Z,30.2583,-88.2131,4.211,5.92,1111122 
DISL,ioos:station:DISL:KATA:1,2013-10-05T21:30:00Z,30.2583,-88.2131,4.212,6.38,1111122 
DISL,ioos:station:DISL:KATA:1,2013-10-05T22:00:00Z,30.2583,-88.2131,4.236,6.58,1111122 
DISL,ioos:station:DISL:KATA:1,2013-10-05T22:30:00Z,30.2583,-88.2131,4.254,5.91,1111122 
DISL,ioos:station:DISL:KATA:1,2013-10-05T23:00:00Z,30.2583,-88.2131,4.263,5.45,1111122 
DISL,ioos:station:DISL:KATA:1,2013-10-05T23:30:00Z,30.2583,-88.2131,4.285,5.47,1111122 
DISL,ioos:station:DISL:KATA:1,2013-10-06T00:00:00Z,30.2583,-88.2131,4.336,6.62,1111122 
DISL,ioos:station:DISL:KATA:1,2013-10-06T00:30:00Z,30.2583,-88.2131,4.343,6.85,1111122 
DISL,ioos:station:DISL:KATA:1,2013-10-06T01:00:00Z,30.2583,-88.2131,4.367,6.56,1111122 
DISL,ioos:station:DISL:KATA:1,2013-10-06T01:30:00Z,30.2583,-88.2131,4.4,6.73,1111122 
DISL,ioos:station:DISL:KATA:1,2013-10-06T02:00:00Z,30.2583,-88.2131,4.441,6.78,1111122 
DISL,ioos:station:DISL:KATA:1,2013-10-06T02:30:00Z,30.2583,-88.2131,4.433,6.8,1111122 
DISL,ioos:station:DISL:KATA:1,2013-10-06T03:00:00Z,30.2583,-88.2131,4.433,7.12,1111122 
DISL,ioos:station:DISL:KATA:1,2013-10-06T03:30:00Z,30.2583,-88.2131,4.442,6.66,1111122 
DISL,ioos:station:DISL:KATA:1,2013-10-06T04:00:00Z,30.2583,-88.2131,4.446,2.97,1111122 
DISL,ioos:station:DISL:KATA:1,2013-10-06T04:30:00Z,30.2583,-88.2131,4.445,1.98,1111122 
DISL,ioos:station:DISL:KATA:1,2013-10-06T05:00:00Z,30.2583,-88.2131,4.448,1.95,1111122 
DISL,ioos:station:DISL:KATA:1,2013-10-06T05:30:00Z,30.2583,-88.2131,4.44,1.98,1111122 
DISL,ioos:station:DISL:KATA:1,2013-10-06T06:00:00Z,30.2583,-88.2131,4.422,1.46,1111122 
DISL,ioos:station:DISL:KATA:1,2013-10-06T06:30:00Z,30.2583,-88.2131,4.407,1.53,1111122 
DISL,ioos:station:DISL:KATA:1,2013-10-06T07:00:00Z,30.2583,-88.2131,4.391,1.48,1111122 
DISL,ioos:station:DISL:KATA:1,2013-10-06T07:30:00Z,30.2583,-88.2131,4.368,2.06,1111122 
DISL,ioos:station:DISL:KATA:1,2013-10-06T08:00:00Z,30.2583,-88.2131,4.346,2.04,1111122 
DISL,ioos:station:DISL:KATA:1,2013-10-06T08:30:00Z,30.2583,-88.2131,4.304,3.13,1111122 
DISL,ioos:station:DISL:KATA:1,2013-10-06T09:00:00Z,30.2583,-88.2131,4.272,4.4,1111122 
DISL,ioos:station:DISL:KATA:1,2013-10-06T09:30:00Z,30.2583,-88.2131,4.247,3.82,1111122 
DISL,ioos:station:DISL:KATA:1,2013-10-06T10:00:00Z,30.2583,-88.2131,4.205,6.5,1111122 
DISL,ioos:station:DISL:KATA:1,2013-10-06T10:30:00Z,30.2583,-88.2131,4.174,6.51,1111122 
DISL,ioos:station:DISL:KATA:1,2013-10-06T11:00:00Z,30.2583,-88.2131,4.153,6.59,1111122 
DISL,ioos:station:DISL:KATA:1,2013-10-06T11:30:00Z,30.2583,-88.2131,4.122,6.62,1111122 
DISL,ioos:station:DISL:KATA:1,2013-10-06T12:00:00Z,30.2583,-88.2131,4.1,6.51,1111122 
DISL,ioos:station:DISL:KATA:1,2013-10-06T12:30:00Z,30.2583,-88.2131,4.096,6.49,1111122 
DISL,ioos:station:DISL:KATA:1,2013-10-06T13:00:00Z,30.2583,-88.2131,4.1,6.46,1111122 
DISL,ioos:station:DISL:KATA:1,2013-10-06T13:30:00Z,30.2583,-88.2131,4.108,6.36,1111122 
DISL,ioos:station:DISL:KATA:1,2013-10-06T14:00:00Z,30.2583,-88.2131,4.133,6.26,1111122 
DISL,ioos:station:DISL:KATA:1,2013-10-06T14:30:00Z,30.2583,-88.2131,4.164,6.22,1111122 
DISL,ioos:station:DISL:KATA:1,2013-10-06T15:00:00Z,30.2583,-88.2131,4.208,6.31,1111122 
DISL,ioos:station:DISL:KATA:1,2013-10-06T15:30:00Z,30.2583,-88.2131,4.239,6.31,1111122 
DISL,ioos:station:DISL:KATA:1,2013-10-06T16:00:00Z,30.2583,-88.2131,4.228,6.31,1111122 
DISL,ioos:station:DISL:KATA:1,2013-10-06T16:30:00Z,30.2583,-88.2131,4.196,6.32,1111122 
DISL,ioos:station:DISL:KATA:1,2013-10-06T17:00:00Z,30.2583,-88.2131,4.22,6.45,1111122 
DISL,ioos:station:DISL:KATA:1,2013-10-06T17:30:00Z,30.2583,-88.2131,4.296,6.38,1111122 